Location: Ironton
(37.9328°N, 107.6803°W)
Time: 22:50:22
(UTC+00:00)

Daily predictions for brighter satellites

Satellite Brightness Start Highest point End
(mag) Time Altitude Azimuth Time Altitude Azimuth Time Altitude Azimuth
X-37B 0.7 12:05:44 21° NW 12:07:27 62° NNE 12:10:19 10° ESE
Cosmos 1980 Rocket 3.2 12:03:42 10° NW 12:07:52 22° W 12:12:02 10° SSW
COSMO-SKYMED 1 3.7 12:04:50 10° SSE 12:08:59 48° ENE 12:13:11 10° N
Cosmos 1707 Rocket 3.6 12:05:39 10° S 12:10:00 84° E 12:14:20 10° N
Lacrosse 4 Rocket 1.4 12:07:58 10° NNW 12:12:22 74° WSW 12:16:48 10° SSE
CENTAUR R/B 3.7 12:09:38 16° W 12:13:03 26° NW 12:18:43 10° NNE
Helios 1B rocket 4.3 12:12:08 10° NW 12:13:35 12° WNW 12:13:35 12° WNW
Lacrosse 5 rocket 2.1 12:11:37 10° SSW 12:16:05 60° SE 12:20:32 10° NE
Meteor 2-19 Rocket 4.4 12:10:25 10° N 12:16:35 80° W 12:22:42 10° S
FALCON 9 DEB 3.7 12:13:55 10° SSW 12:17:00 50° SE 12:20:05 10° ENE
Cosmos 1869 Rocket 3.9 12:15:15 10° NNW 12:19:25 43° W 12:23:32 10° SSW
Cosmos 1484 Rocket 4.3 12:17:58 10° NNW 12:20:43 18° WNW 12:22:42 13° WSW
CZ-4C R/B 3.6 12:18:55 10° S 12:23:00 54° W 12:27:16 10° NNW
SL-08 R/B 4.1 12:22:02 10° SSW 12:26:06 30° W 12:30:15 10° NW
YAOGAN 6 4.2 12:23:54 10° NNW 12:26:13 16° WNW 12:28:12 11° WSW
USA 290 4.2 12:23:52 10° N 12:26:48 32° ENE 12:29:43 10° SE
Delta 2 Rocket 3.8 12:27:11 12° W 12:29:54 33° SSW 12:32:56 10° SE
BREEZE-M DEB (TANK) 2.1 12:27:25 10° WNW 12:30:35 81° NNE 12:33:04 10° ESE
Cosmos 1726 3.6 12:27:34 10° N 12:31:01 41° E 12:34:25 10° SSE
Meteor 1-31 Rocket 4.0 12:27:47 10° NNE 12:31:29 46° E 12:35:12 10° S
SL-16 R/B 2.3 12:26:30 10° NNW 12:32:05 60° WSW 12:37:37 10° S
NOAA 11 4.4 12:29:08 10° N 12:34:25 51° WNW 12:39:39 10° SW
SL-8 R/B 4.0 12:32:30 10° SW 12:37:14 71° SE 12:42:00 10° ENE
CZ-4B R/B 3.6 12:33:06 10° N 12:38:20 68° WNW 12:43:33 10° SSW
PSLV R/B 4.2 12:34:52 10° N 12:38:45 34° WNW 12:42:35 10° SW
Cosmos 1733 Rocket 3.0 12:34:46 10° N 12:39:11 83° W 12:43:33 10° S
BREEZE-M DEB (TANK) 3.2 12:40:25 10° NW 12:42:37 35° NNE 12:45:26 10° ESE
